Weather History for Little Rock AFB, AR

Change the Weather History Date:

Monday, March 19, 2012

  Actual Average Record
Temperature  
Mean Temperature 72 °F -  
Max Temperature 80 °F 67 °F 84 °F (1982)
Min Temperature 63 °F 42 °F 27 °F (1988)
Cooling Degree Days 6    
Growing Degree Days 22 (Base 50)    
Moisture  
Dew Point 61 °F    
Average Humidity 75    
Maximum Humidity 94    
Minimum Humidity 50    
Precipitation  
Precipitation 0.00 in - - ()
Sea Level Pressure  
Sea Level Pressure 29.94 in    
Wind  
Wind Speed 4 mph (SE)    
Max Wind Speed 20 mph    
Max Gust Speed 28 mph    
Visibility 10 miles    
Events Rain    
Averages and records for this station are not official NWS values.
T = Trace of Precipitation, MM = Missing Value Source: NWS Daily Summary

Daily Weather History Graph

Daily Weather History Graph

Search for Another Location

Airport:

Trip Planner

Search our weather history database for the weather conditions in past years. The results will help you decide how hot, cold, wet, or windy it might be!

Date:

Astronomy

Mar. 19, 2012 Rise Set
Actual Time 7:12 AM CDT 7:19 PM CDT
Civil Twilight 6:47 AM CDT 7:45 PM CDT
Nautical Twilight 6:18 AM CDT 8:14 PM CDT
Astronomical Twilight 5:48 AM CDT 8:44 PM CDT
Moon 5:19 AM CDT (3/19) 4:53 PM CDT (3/19)
Length of Visible Light 12h 57m
Length of Day
12h 06m
Waning Crescent, 8% of the Moon is Illuminated
Mar 19
Waning Crescent
Mar 22
New
Mar 30
First Quarter
Apr 6
Full
Apr 13
Last Quarter

Hourly Weather History & Observations

Time (CDT) Temp. Heat Index Dew Point Humidity Pressure Visibility Wind Dir Wind Speed Gust Speed Precip Events Conditions
12:55 AM 69.6 °F - 61.5 °F 75% 29.97 in 10.0 mi Calm Calm - N/A   Clear
1:55 AM 68.2 °F - 60.8 °F 77% 29.99 in 10.0 mi Calm Calm - N/A   Clear
2:50 AM 64.4 °F - 60.8 °F 88% 29.98 in 10.0 mi Calm Calm - N/A   Light Drizzle
2:55 AM 64.2 °F - 60.4 °F 87% 29.98 in 10.0 mi Calm Calm - 0.00 in   Light Drizzle
2:58 AM 64.4 °F - 60.8 °F 88% 29.98 in 10.0 mi Calm Calm - N/A   Scattered Clouds
2:59 AM 64.4 °F - 60.8 °F 88% 29.98 in 10.0 mi Calm Calm - N/A   Light Drizzle
3:00 AM 64.4 °F - 60.8 °F 88% 29.98 in 10.0 mi Calm Calm - N/A   Scattered Clouds
3:55 AM 63.0 °F - 60.3 °F 91% 29.97 in 10.0 mi SE 4.6 mph - 0.00 in   Mostly Cloudy
4:38 AM 64.4 °F - 60.8 °F 88% 29.97 in 10.0 mi ESE 3.5 mph - N/A Rain Light Rain
4:45 AM 64.4 °F - 60.8 °F 88% 29.97 in 10.0 mi Calm Calm - N/A   Partly Cloudy
4:55 AM 64.0 °F - 60.4 °F 88% 29.97 in 10.0 mi Calm Calm - 0.00 in   Partly Cloudy
5:19 AM 64.4 °F - 60.8 °F 88% 29.98 in 10.0 mi Calm Calm - N/A   Mostly Cloudy
5:34 AM 64.4 °F - 60.8 °F 88% 29.98 in 10.0 mi Calm Calm - N/A   Mostly Cloudy
5:55 AM 63.3 °F - 60.4 °F 90% 29.99 in 10.0 mi Calm Calm - N/A   Scattered Clouds
6:49 AM 64.4 °F - 62.6 °F 94% 29.98 in 10.0 mi East 4.6 mph - N/A Rain Light Rain
6:55 AM 64.6 °F - 62.1 °F 92% 29.98 in 10.0 mi East 4.6 mph - 0.00 in Rain Light Rain
6:56 AM 64.4 °F - 62.6 °F 94% 29.98 in 10.0 mi East 3.5 mph - N/A   Mostly Cloudy
7:55 AM 66.4 °F - 63.1 °F 89% 29.99 in 10.0 mi SE 5.8 mph - 0.00 in   Partly Cloudy
8:55 AM 67.8 °F - 63.3 °F 85% 29.99 in 10.0 mi SE 10.4 mph - N/A   Clear
9:55 AM 70.2 °F - 63.3 °F 79% 29.99 in 10.0 mi SSE 11.5 mph 19.6 mph N/A   Scattered Clouds
10:00 AM 69.8 °F - 64.4 °F 83% 29.99 in 10.0 mi South 9.2 mph - N/A   Mostly Cloudy
10:38 AM 73.4 °F - 64.4 °F 73% 29.99 in 10.0 mi SSE 13.8 mph - N/A   Scattered Clouds
10:55 AM 73.0 °F - 63.5 °F 72% 29.99 in 10.0 mi SSE 12.7 mph 21.9 mph N/A   Partly Cloudy
11:55 AM 75.6 °F - 63.0 °F 65% 29.98 in 10.0 mi SSE 9.2 mph 16.1 mph N/A   Mostly Cloudy
12:50 PM 77.0 °F - 62.6 °F 61% 29.95 in 10.0 mi SE 11.5 mph - N/A   Light Drizzle
12:55 PM 77.4 °F - 61.5 °F 58% 29.95 in 10.0 mi SE 10.4 mph - 0.00 in   Light Drizzle
12:57 PM 77.0 °F - 60.8 °F 57% 29.94 in 10.0 mi ESE 9.2 mph - N/A   Light Drizzle
1:00 PM 77.0 °F - 62.6 °F 61% 29.94 in 10.0 mi ESE 11.5 mph 18.4 mph N/A   Mostly Cloudy
1:55 PM 78.4 °F - 62.1 °F 57% 29.91 in 10.0 mi SSE 13.8 mph 21.9 mph 0.00 in   Scattered Clouds
2:55 PM 80.1 °F 81.2 °F 62.1 °F 54% 29.88 in 10.0 mi SSE 10.4 mph 21.9 mph N/A   Partly Cloudy
3:55 PM 80.1 °F 80.9 °F 59.7 °F 50% 29.86 in 10.0 mi SSE 10.4 mph 24.2 mph N/A   Clear
4:55 PM 79.2 °F - 59.7 °F 51% 29.85 in 4.0 mi SSE 19.6 mph 27.6 mph N/A   Haze
5:55 PM 77.0 °F - 59.5 °F 55% 29.85 in 10.0 mi SSE 13.8 mph 24.2 mph N/A   Partly Cloudy
6:55 PM 75.7 °F - 59.7 °F 57% 29.85 in 10.0 mi SSE 12.7 mph 25.3 mph N/A   Partly Cloudy
7:55 PM 73.4 °F - 60.6 °F 64% 29.83 in 10.0 mi SSE 9.2 mph - N/A   Clear
8:55 PM 72.5 °F - 60.8 °F 67% 29.85 in 10.0 mi SE 11.5 mph 18.4 mph N/A   Partly Cloudy
9:55 PM 71.6 °F - 60.3 °F 67% 29.86 in 10.0 mi SSE 10.4 mph 18.4 mph N/A   Clear
10:55 PM 70.9 °F - 60.1 °F 69% 29.87 in 10.0 mi SE 8.1 mph - N/A   Clear
11:55 PM 69.6 °F - 59.4 °F 70% 29.88 in 10.0 mi ESE 6.9 mph - N/A   Clear